Retour au catalogue

COSMOS 1091

ActifMilitairePO
NORAD 11320·PAYLOAD·🇷🇺 Russia

Lancé Apr 7, 1979 depuis Plesetsk Cosmodrome

Loading…

Prochains Passages (prochaines 24 heures)

TLE

FraisSource: Space-Track

Époque: Sep 14, 2026, 11:19 UTC

1 11320U 79028A   26257.47156449  .00000030  00000-0  16058-4 0  9992
2 11320  82.9197  66.9904 0029103 275.0003 102.5035 13.74927363379405

Suivez COSMOS 1091 en temps réel avec AllMySat

Download on the App Store